STARLINK-1656, 46353

Orbit data source: Space-Track

STARLINK-1656, 46353 is a payload satellite owned by SpaceX/Seattle (US) in LEO that was launched on Thu, 03 Sep 2020 UTC via an FALCON 9 launch vehicle from the Air Force Eastern Test Range (AFETR). Payload-class satellites include a variety of spacecraft equipped with specific instruments for various scientific and technological missions. These include communications satellites like Starlink; space stations such as the ISS; scientific satellites like the Hubble; Earth observation satellites from companies like Planet Labs, Umbra, and HawkEye 360; GPS; miniature CubeSats for education and research; and military/defense satellites.

Loading next visibility...
Identifier
46353, 2020-062AE
Orbit
LEO
Country
Flag of USUS
Related business
Manufacturer
SpaceX/Seattle
Mission
Partially operational Commercial Communications
Bus & Motor
STARLINK, Unknown motor
Mass
260 kg wet, ~248 kg dry
Launch date (UTC)
2020-09-03 (6 years ago)
Launch vehicle
FALCON 9
Launch site
Air Force Eastern Test Range (AFETR)
Object type
Payload
Rocket body
Debris
Shape & HBR
Box + 1 Pan, 10.1 m
Radar Cross Section
13.562 m², Large (>1 m²)

Expand to show TLE details & history
Last TLE update: 12 hours ago

TLE from 12 hours ago
0 STARLINK-1656
1 46353U 20062AE  26166.58787341  .00072346  00000-0  58462-3 0  9995
2 46353  53.0394 241.5081 0001692 304.0353  56.0503 15.70204577319846
Epoch: 2026-06-15T14:06Z
TLE epoch observation values (Epoch: 2026-06-15T14:06:32.262Z)
Latitude
-0°
Longitude
126.00156°
Altitude
358.577 km
Speed
7.696 km/s
True Right ascension
16h 06m 01s
True Declination
0° 00' 00"
Sunlit
Object was in full shadow at epoch
Visualization orbit readout
Latitude
Unknown
Longitude
Unknown
Altitude
Unknown
Speed
Unknown
Apparent Right ascension
Unknown
Apparent Declination
Unknown
Sunlit
N/A
Visualization observer readout
Local Sidereal Time
12:31:42
Azimuth
Unknown
Elevation
Unknown
Doppler factor
Unknown
Orbital elements
Apogee altitude
359.732 km
Perigee altitude
357.453 km
Semi-major axis
6,736.729 km
Eccentricity
0.00017
Inclination
53.0394°
RAAN
241.5081°
Arg. of periapsis
304.0353°
True anomaly
56.06639°
Mean anomaly
56.0503°
Eccentric anomaly
56.05834°
Mean motion
3.92527 °/min
Orbital period
91.71 mins
BSTAR
0.00058462
Loading maneuver chart data...
Computing Atmospheric mass density...

Documentation

Showing up to 5 results
|